Weather History for Stanley, ND

Change the Weather History Date:

Thursday, February 20, 2014

  Actual Average (KMOT) Record (KMOT)
Temperature  
Mean Temperature 15 °F 18 °F  
Max Temperature 32 °F 27 °F 55 °F (1930)
Min Temperature -2 °F 10 °F -32 °F (1918)
Degree Days  
Heating Degree Days 50 47  
Month to date heating degree days 984  
Since 1 July heating degree days 6216  
Moisture  
Dew Point 6 °F    
Average Humidity 84    
Maximum Humidity 100    
Minimum Humidity 72    
Precipitation  
Precipitation 0.34 in 0.01 in 0.27 in (1969)
Month to date precipitation 0.26  
Year to date precipitation 0.77  
Sea Level Pressure  
Sea Level Pressure 29.68 in    
Wind  
Wind Speed 15 mph (NW)    
Max Wind Speed 24 mph    
Max Gust Speed 32 mph    
Visibility 9 miles    
Events Rain , Snow    
T = Trace of Precipitation, MM = Missing Value Source: NWS Daily Summary

Daily Weather History Graph

Daily Weather History Graph

Search for Another Location

Airport:

Trip Planner

Search our weather history database for the weather conditions in past years. The results will help you decide how hot, cold, wet, or windy it might be!

Date:

Astronomy

Feb. 20, 2014 Rise Set
Actual Time 7:47 AM CST 6:19 PM CST
Civil Twilight 7:15 AM CST 6:51 PM CST
Nautical Twilight 6:39 AM CST 7:27 PM CST
Astronomical Twilight 6:03 AM CST 8:04 PM CST
Moon No Moon Rise 10:03 AM CST (2/20)
Length of Visible Light 11h 35m
Length of Day
10h 32m
Waning Gibbous, 70% of the Moon is Illuminated
Feb 20
Waning Gibbous
Feb 22
Last Quarter
Mar 1
New
Mar 8
First Quarter
Mar 16
Full

Hourly Weather History & Observations

Time (CST) Temp. Windchill Dew Point Humidity Pressure Visibility Wind Dir Wind Speed Gust Speed Precip Events Conditions
12:15 AM 32.0 °F 22.1 °F 32.0 °F 100% 29.44 in 4.0 mi West 13.8 mph - 0.08 in Snow Light Snow
12:35 AM 32.0 °F 21.6 °F 28.4 °F 87% 29.44 in 10.0 mi WSW 15.0 mph - 0.08 in   Mostly Cloudy
12:55 AM 32.0 °F 21.2 °F 26.6 °F 80% 29.44 in 10.0 mi WSW 16.1 mph - 0.08 in   Overcast
1:15 AM 30.2 °F 18.9 °F 26.6 °F 86% 29.44 in 10.0 mi WSW 16.1 mph - N/A   Overcast
1:35 AM 30.2 °F 18.9 °F 26.6 °F 86% 29.44 in 10.0 mi WSW 16.1 mph - N/A   Overcast
1:55 AM 30.2 °F 18.9 °F 26.6 °F 86% 29.44 in 10.0 mi WSW 16.1 mph - N/A   Overcast
2:15 AM 30.2 °F 20.2 °F 24.8 °F 80% 29.45 in 10.0 mi West 12.7 mph - N/A   Overcast
2:35 AM 30.2 °F 18.5 °F 23.0 °F 75% 29.45 in 10.0 mi West 17.3 mph 23.0 mph N/A   Overcast
2:55 AM 28.4 °F 14.4 °F 23.0 °F 80% 29.47 in 10.0 mi West 23.0 mph 29.9 mph N/A   Overcast
3:15 AM 26.6 °F 13.4 °F 21.2 °F 80% 29.47 in 10.0 mi West 18.4 mph 24.2 mph N/A   Overcast
3:35 AM 26.6 °F 14.7 °F 21.2 °F 80% 29.47 in 10.0 mi West 15.0 mph 21.9 mph N/A   Overcast
3:55 AM 26.6 °F 14.3 °F 21.2 °F 80% 29.48 in 10.0 mi WNW 16.1 mph 20.7 mph N/A   Overcast
4:15 AM 24.8 °F 11.9 °F 21.2 °F 86% 29.49 in 10.0 mi WNW 16.1 mph - N/A   Overcast
4:35 AM 15.8 °F -0.6 °F 12.2 °F 86% 29.51 in 10.0 mi North 18.4 mph 21.9 mph N/A Snow Light Snow
4:55 AM 10.4 °F -7.7 °F 8.6 °F 92% 29.53 in 5.0 mi North 18.4 mph 24.2 mph 0.02 in Snow Light Snow
5:15 AM 8.6 °F -11.0 °F 6.8 °F 92% 29.56 in 3.0 mi North 20.7 mph 24.2 mph 0.08 in Snow Light Snow
5:35 AM 8.6 °F -10.0 °F 6.8 °F 92% 29.59 in 8.0 mi North 18.4 mph 24.2 mph 0.16 in Snow Light Snow
5:55 AM 8.6 °F -10.0 °F 5.0 °F 85% 29.60 in 8.0 mi North 18.4 mph 27.6 mph 0.17 in Rain Light Freezing Rain
6:15 AM 8.6 °F -10.0 °F 6.8 °F 92% 29.61 in 10.0 mi North 18.4 mph - N/A Snow Light Snow
6:35 AM 8.6 °F -11.4 °F 5.0 °F 85% 29.63 in 5.0 mi North 21.9 mph 29.9 mph 0.02 in Snow Light Snow
6:55 AM 6.8 °F -14.7 °F 5.0 °F 92% 29.64 in 4.0 mi North 24.2 mph 32.2 mph 0.04 in Snow Light Snow
7:15 AM 6.8 °F -13.8 °F 5.0 °F 92% 29.66 in 4.0 mi North 21.9 mph 27.6 mph 0.01 in Snow Light Snow
7:35 AM 8.6 °F -11.0 °F 5.0 °F 85% 29.67 in 8.0 mi North 20.7 mph 27.6 mph 0.03 in Snow Light Snow
7:55 AM 6.8 °F -14.3 °F 5.0 °F 92% 29.69 in 10.0 mi NNW 23.0 mph 27.6 mph 0.03 in Rain Light Freezing Rain
8:15 AM 6.8 °F -12.9 °F 3.2 °F 85% 29.71 in 10.0 mi NNW 19.6 mph 27.6 mph N/A Snow Light Snow
8:35 AM 6.8 °F -11.8 °F 1.4 °F 79% 29.72 in 10.0 mi NNW 17.3 mph 25.3 mph N/A Snow Light Snow
8:55 AM 5.0 °F -13.0 °F 1.4 °F 85% 29.74 in 10.0 mi NW 15.0 mph 25.3 mph N/A   Overcast
9:15 AM 5.0 °F -13.6 °F -0.4 °F 78% 29.74 in 10.0 mi NW 16.1 mph 26.5 mph N/A Snow Light Snow
9:35 AM 5.0 °F -14.2 °F -0.4 °F 78% 29.75 in 10.0 mi NW 17.3 mph 26.5 mph N/A   Mostly Cloudy
9:55 AM 5.0 °F -15.2 °F 1.4 °F 85% 29.76 in 10.0 mi NNW 19.6 mph 27.6 mph N/A   Mostly Cloudy
10:15 AM 6.8 °F -13.4 °F 1.4 °F 79% 29.77 in 10.0 mi NW 20.7 mph 25.3 mph N/A   Mostly Cloudy
10:35 AM 6.8 °F -11.8 °F -0.4 °F 72% 29.78 in 10.0 mi NW 17.3 mph 27.6 mph N/A   Mostly Cloudy
10:55 AM 6.8 °F -11.8 °F 1.4 °F 79% 29.78 in 10.0 mi NW 17.3 mph 26.5 mph N/A   Mostly Cloudy
11:15 AM 6.8 °F -12.4 °F 1.4 °F 79% 29.79 in 10.0 mi NNW 18.4 mph 27.6 mph N/A   Overcast
11:35 AM 6.8 °F -13.4 °F 1.4 °F 79% 29.79 in 10.0 mi NW 20.7 mph 24.2 mph N/A   Mostly Cloudy
11:55 AM 6.8 °F -12.4 °F 1.4 °F 79% 29.80 in 10.0 mi NW 18.4 mph 25.3 mph N/A   Mostly Cloudy
12:15 PM 6.8 °F -11.3 °F 1.4 °F 79% 29.80 in 10.0 mi NW 16.1 mph 24.2 mph N/A   Mostly Cloudy
12:35 PM 6.8 °F -11.3 °F 1.4 °F 79% 29.80 in 10.0 mi NW 16.1 mph 23.0 mph N/A   Partly Cloudy
12:55 PM 8.6 °F -7.0 °F 1.4 °F 73% 29.79 in 10.0 mi NW 12.7 mph 23.0 mph N/A   Clear
1:15 PM 8.6 °F -8.9 °F 3.2 °F 79% 29.79 in 10.0 mi NW 16.1 mph 20.7 mph N/A   Clear
1:35 PM 8.6 °F -7.7 °F 3.2 °F 79% 29.79 in 10.0 mi NW 13.8 mph 17.3 mph N/A   Clear
1:55 PM 8.6 °F -10.0 °F 3.2 °F 79% 29.78 in 10.0 mi WNW 18.4 mph 25.3 mph N/A   Clear
2:15 PM 8.6 °F -9.5 °F 3.2 °F 79% 29.78 in 10.0 mi WNW 17.3 mph 25.3 mph N/A   Partly Cloudy
2:35 PM 8.6 °F -10.0 °F 3.2 °F 79% 29.78 in 10.0 mi NW 18.4 mph 24.2 mph N/A   Partly Cloudy
2:55 PM 8.6 °F -10.5 °F 5.0 °F 85% 29.78 in 10.0 mi NW 19.6 mph 25.3 mph N/A   Partly Cloudy
3:15 PM 8.6 °F -7.7 °F 5.0 °F 85% 29.78 in 10.0 mi WNW 13.8 mph 25.3 mph N/A   Partly Cloudy
3:35 PM 8.6 °F -10.5 °F 5.0 °F 85% 29.77 in 10.0 mi NW 19.6 mph 26.5 mph N/A   Partly Cloudy
3:55 PM 10.4 °F -7.2 °F 5.0 °F 79% 29.78 in 10.0 mi WNW 17.3 mph 23.0 mph N/A   Clear
4:15 PM 10.4 °F -7.7 °F 5.0 °F 79% 29.78 in 10.0 mi WNW 18.4 mph 23.0 mph N/A   Clear
4:35 PM 8.6 °F -8.9 °F 5.0 °F 85% 29.77 in 10.0 mi WNW 16.1 mph 23.0 mph N/A   Clear
4:55 PM 10.4 °F -6.0 °F 5.0 °F 79% 29.78 in 10.0 mi WNW 15.0 mph - N/A   Clear
5:15 PM 10.4 °F -5.4 °F 5.0 °F 79% 29.78 in 10.0 mi NW 13.8 mph 18.4 mph N/A   Clear
5:35 PM 8.6 °F -5.5 °F 3.2 °F 79% 29.77 in 10.0 mi NW 10.4 mph - N/A   Clear
5:55 PM 8.6 °F -4.7 °F 3.2 °F 79% 29.78 in 10.0 mi WNW 9.2 mph - N/A   Clear
6:15 PM 6.8 °F -4.8 °F 1.4 °F 79% 29.77 in 10.0 mi NW 6.9 mph - N/A   Clear
6:35 PM 5.0 °F -6.9 °F -0.4 °F 78% 29.76 in 10.0 mi WNW 6.9 mph - N/A   Clear
6:55 PM 1.4 °F -11.3 °F -0.4 °F 92% 29.76 in 10.0 mi WNW 6.9 mph - N/A   Clear
7:15 PM 1.4 °F -9.9 °F -0.4 °F 92% 29.76 in 10.0 mi WNW 5.8 mph - N/A   Clear
7:35 PM 1.4 °F -6.2 °F -0.4 °F 92% 29.75 in 10.0 mi NNW 3.5 mph - N/A   Clear
7:55 PM 3.2 °F -6.2 °F -0.4 °F 85% 29.75 in 10.0 mi NW 4.6 mph - N/A   Clear
8:15 PM 1.4 °F -11.3 °F -2.2 °F 85% 29.74 in 10.0 mi NNW 6.9 mph - N/A   Clear
8:35 PM 1.4 °F -9.9 °F -0.4 °F 92% 29.74 in 10.0 mi NW 5.8 mph - N/A   Clear
8:55 PM -0.4 °F -8.3 °F -2.2 °F 92% 29.74 in 10.0 mi North 3.5 mph - N/A   Clear
9:15 PM -0.4 °F -13.4 °F -2.2 °F 92% 29.74 in 10.0 mi North 6.9 mph - N/A   Clear
9:35 PM -0.4 °F -8.3 °F -4.0 °F 85% 29.74 in 10.0 mi WSW 3.5 mph - N/A   Clear
9:55 PM -0.4 °F - -4.0 °F 85% 29.74 in 10.0 mi Calm Calm - N/A   Clear
10:15 PM 1.4 °F -6.2 °F -0.4 °F 92% 29.74 in 10.0 mi North 3.5 mph - N/A   Clear
10:35 PM -0.4 °F -8.3 °F -2.2 °F 92% 29.74 in 10.0 mi NW 3.5 mph - N/A   Clear
10:55 PM -2.2 °F -10.4 °F -7.6 °F 78% 29.73 in 10.0 mi NW 3.5 mph - N/A   Clear
11:15 PM -2.2 °F -12.5 °F -5.8 °F 85% 29.73 in 10.0 mi West 4.6 mph - N/A   Clear
11:35 PM -2.2 °F - -4.0 °F 92% 29.72 in 10.0 mi Calm Calm - N/A   Clear
11:55 PM -2.2 °F -10.4 °F -4.0 °F 92% 29.72 in 10.0 mi NNW 3.5 mph - N/A   Clear